Year,Month,Day,Hour,Minute,Value (Times are PST for barometer in hPa)
2020,11,18,05,50,902.03
2020,11,18,05,51,902.03
2020,11,18,05,52,902.27
2020,11,18,05,53,903.40
2020,11,18,05,54,903.66
2020,11,18,05,55,903.66
2020,11,18,05,56,903.66
2020,11,18,05,57,903.66
2020,11,18,05,58,903.66
2020,11,18,05,59,903.66
2020,11,18,06,00,903.66
2020,11,18,06,01,903.66
2020,11,18,06,02,903.66
2020,11,18,06,03,903.66
2020,11,18,06,04,903.66
2020,11,18,06,05,903.66
2020,11,18,06,06,903.66
2020,11,18,06,07,903.66
2020,11,18,06,08,903.66
2020,11,18,06,09,903.66
2020,11,18,06,10,903.66
2020,11,18,06,11,903.66
2020,11,18,06,12,903.66
2020,11,18,06,13,903.66
2020,11,18,06,14,903.66
2020,11,18,06,15,903.66
2020,11,18,06,16,903.66
2020,11,18,06,17,903.66
2020,11,18,06,18,903.66
2020,11,18,06,19,903.66
2020,11,18,06,20,903.66
2020,11,18,06,21,903.66
2020,11,18,08,54,906.64
2020,11,18,08,55,906.64
2020,11,18,08,56,906.64
2020,11,18,08,57,906.64
2020,11,18,08,58,906.64
2020,11,18,08,59,906.64
2020,11,18,09,00,904.41
2020,11,18,09,01,902.98
2020,11,18,09,02,902.98
2020,11,18,09,03,902.98
2020,11,18,09,04,902.98
2020,11,18,09,05,902.98
2020,11,18,09,06,902.98
2020,11,18,09,07,902.98
2020,11,18,09,08,902.98
2020,11,18,09,09,902.98
2020,11,18,09,10,902.98
2020,11,18,09,11,902.98
2020,11,18,09,12,902.98
2020,11,18,09,13,902.98
2020,11,18,09,14,902.98
2020,11,18,09,15,902.98
2020,11,18,09,16,902.98
2020,11,18,09,17,902.98
2020,11,18,09,18,902.98
2020,11,18,09,19,902.98
2020,11,18,09,20,902.98
2020,11,18,09,21,902.98
2020,11,18,09,22,902.98
2020,11,18,09,23,902.98
2020,11,18,09,24,902.98
2020,11,18,09,25,902.98
2020,11,18,09,26,902.98
2020,11,18,09,42,903.96
2020,11,18,09,43,903.79
2020,11,18,09,44,903.73
2020,11,18,09,45,903.73
2020,11,18,09,46,903.73
2020,11,18,09,47,903.73
2020,11,18,17,02,905.79
2020,11,18,17,03,905.55
2020,11,18,17,04,905.49
2020,11,18,17,05,906.14
2020,11,18,17,06,906.30
2020,11,18,17,07,906.89
2020,11,18,17,08,907.03
2020,11,18,17,09,907.32
2020,11,18,17,10,907.10
2020,11,18,17,11,907.01
2020,11,18,17,12,908.27
2020,11,18,17,13,908.08
2020,11,18,17,14,907.93
2020,11,18,17,15,908.75
2020,11,18,17,16,908.94
2020,11,18,17,17,908.94
2020,11,18,17,18,908.80
2020,11,18,17,19,908.63
2020,11,18,17,20,908.27
2020,11,18,17,21,908.20
2020,11,18,17,22,908.20
2020,11,18,17,23,908.20
2020,11,18,17,24,908.07
2020,11,18,17,25,908.03
2020,11,18,17,26,908.41
2020,11,18,17,27,908.77
2020,11,18,17,28,908.81
2020,11,18,17,29,908.81
2020,11,18,17,30,908.81
2020,11,18,17,31,910.05
2020,11,18,17,32,910.52
2020,11,18,17,33,910.57
2020,11,18,17,34,910.57
2020,11,18,17,35,911.66
2020,11,18,17,36,911.85
2020,11,18,17,37,911.85
2020,11,18,17,38,911.85
2020,11,18,17,39,911.85
2020,11,18,17,40,911.85
2020,11,18,17,41,911.48
2020,11,18,17,42,911.18
2020,11,18,17,43,910.77
2020,11,18,17,44,910.93
2020,11,18,17,45,910.97
2020,11,18,17,46,910.97
2020,11,18,17,47,911.88
2020,11,18,17,48,912.02
2020,11,18,17,49,912.02
2020,11,18,17,50,912.61
2020,11,18,17,51,912.82
2020,11,18,17,52,912.84
2020,11,18,17,53,915.14
2020,11,18,17,54,915.99
2020,11,18,17,55,916.17
2020,11,18,17,56,916.19
2020,11,18,17,57,914.07
2020,11,18,17,58,914.18
2020,11,18,17,59,913.73
2020,11,18,18,00,913.92
2020,11,18,18,01,913.83
2020,11,18,18,02,914.09
2020,11,18,18,03,914.12
2020,11,18,18,04,915.19
2020,11,18,18,05,915.27
2020,11,18,18,06,914.91
2020,11,18,18,07,915.51
2020,11,18,18,08,915.54
2020,11,18,18,09,915.60
2020,11,18,18,10,915.87
2020,11,18,18,11,915.88
2020,11,18,18,12,915.66
2020,11,18,18,13,916.19
2020,11,18,18,14,915.73
2020,11,18,18,15,916.26
2020,11,18,18,16,915.68
2020,11,18,18,17,916.14
2020,11,18,18,18,916.41
2020,11,18,18,19,916.42
2020,11,18,18,20,918.07
2020,11,18,18,21,918.15
2020,11,18,18,22,916.80
2020,11,18,18,23,916.24
2020,11,18,18,24,916.56
2020,11,18,18,25,916.56
2020,11,18,18,26,917.95
2020,11,18,18,27,918.07
2020,11,18,18,28,918.70
2020,11,18,18,29,918.52
2020,11,18,18,30,918.68
2020,11,18,18,31,918.83
2020,11,18,18,32,919.41
2020,11,18,18,33,920.05
2020,11,18,18,34,919.66
2020,11,18,18,35,920.15
2020,11,18,18,36,920.15
2020,11,18,18,37,920.15
2020,11,18,18,38,917.57
2020,11,18,18,39,917.35
2020,11,18,18,40,917.03
2020,11,18,18,41,917.00
2020,11,18,18,42,917.00
2020,11,18,18,43,918.29
2020,11,18,18,44,918.06
2020,11,18,18,45,917.62
2020,11,18,18,46,917.81
2020,11,18,18,47,917.34
2020,11,18,18,48,917.95
2020,11,18,18,49,917.95
2020,11,18,18,50,917.95
2020,11,18,18,51,917.95
2020,11,18,18,52,914.29
2020,11,18,18,53,914.89
2020,11,18,18,54,915.24
2020,11,18,18,55,915.24
2020,11,18,18,56,915.25
2020,11,18,18,57,915.38
2020,11,18,18,58,915.41
2020,11,18,18,59,915.92
2020,11,18,19,00,915.85
2020,11,18,19,01,915.13
2020,11,18,19,02,914.93
2020,11,18,19,03,914.95
2020,11,18,19,04,915.16
2020,11,18,19,05,915.53
2020,11,18,19,06,915.45
2020,11,18,19,07,915.56
2020,11,18,19,08,915.79
2020,11,18,19,09,916.20
2020,11,18,19,10,916.07
2020,11,18,19,11,916.54
2020,11,18,19,12,916.60
2020,11,18,19,13,916.73
2020,11,18,19,14,917.26
2020,11,18,19,15,917.43
2020,11,18,19,16,917.37
2020,11,18,19,17,917.41
2020,11,18,19,18,917.44
2020,11,18,19,19,917.52
2020,11,18,19,20,918.33
2020,11,18,19,21,918.43
2020,11,18,19,22,918.60
2020,11,18,19,23,917.98
2020,11,18,19,24,917.78
2020,11,18,19,25,918.21
2020,11,18,19,26,918.32
2020,11,18,19,27,918.32
2020,11,18,19,28,918.11
2020,11,18,19,29,916.80
2020,11,18,19,30,916.42
2020,11,18,19,31,916.61
2020,11,18,19,32,916.76
2020,11,18,19,33,916.68
2020,11,18,19,34,916.27
2020,11,18,19,35,916.35
2020,11,18,19,36,916.47
2020,11,18,19,37,916.26
2020,11,18,19,38,916.33
2020,11,18,19,39,916.83
2020,11,18,19,40,917.41
2020,11,18,19,41,917.19
2020,11,18,19,42,915.90
2020,11,18,19,43,916.39
2020,11,18,19,44,916.64
2020,11,18,19,45,917.96
2020,11,18,19,46,917.49
2020,11,18,19,47,917.00
2020,11,18,19,48,916.86
2020,11,18,19,49,916.11
2020,11,18,19,50,916.34
2020,11,18,19,51,916.66
2020,11,18,19,52,916.83
2020,11,18,19,53,917.61
2020,11,18,19,54,917.70
2020,11,18,19,55,918.34
2020,11,18,19,56,918.84
2020,11,18,19,57,918.61
2020,11,18,19,58,918.13
2020,11,18,19,59,918.49
2020,11,18,20,00,918.83
2020,11,18,20,01,918.78
2020,11,18,20,02,918.46
2020,11,18,20,03,918.23
2020,11,18,20,04,917.56
2020,11,18,20,05,917.98
2020,11,18,20,06,917.70
2020,11,18,20,07,917.91
2020,11,18,20,08,918.17
2020,11,18,20,09,918.05
2020,11,18,20,10,917.84
2020,11,18,20,11,917.46
2020,11,18,20,12,917.87
2020,11,18,20,13,918.23
2020,11,18,20,14,917.71
2020,11,18,20,15,917.84
2020,11,18,20,16,918.42
2020,11,18,20,17,918.87
2020,11,18,20,18,918.93
2020,11,18,20,19,918.64
2020,11,18,20,20,919.10
2020,11,18,20,21,918.90
2020,11,18,20,22,918.52
2020,11,18,20,23,918.66
2020,11,18,20,24,918.91
2020,11,18,20,25,918.88
2020,11,18,20,26,918.77
2020,11,18,20,27,918.77
2020,11,18,20,28,918.74
2020,11,18,20,29,918.99
2020,11,18,20,30,919.20
2020,11,18,20,31,919.09
2020,11,18,20,32,919.07
2020,11,18,20,33,919.31
2020,11,18,20,34,919.95
2020,11,18,20,35,919.65
2020,11,18,20,36,918.91
2020,11,18,20,37,919.04
2020,11,18,20,38,919.40
2020,11,18,20,39,919.61
2020,11,18,20,40,919.34
2020,11,18,20,41,919.19
2020,11,18,20,42,919.24
2020,11,18,20,43,918.94
2020,11,18,20,44,918.57
2020,11,18,20,45,918.22
2020,11,18,20,46,918.65
2020,11,18,20,47,919.69
2020,11,18,20,48,919.60
2020,11,18,20,49,919.47
2020,11,18,20,50,919.51
2020,11,18,20,51,919.66
2020,11,18,20,52,919.41
2020,11,18,20,53,919.30
2020,11,18,20,54,919.42
2020,11,18,20,55,919.68
2020,11,18,20,56,919.09
2020,11,18,20,57,918.12
2020,11,18,20,58,918.54
2020,11,18,20,59,918.86
2020,11,18,21,00,918.38
2020,11,18,21,01,917.41
2020,11,18,21,02,917.41
2020,11,18,21,03,917.34
2020,11,18,21,04,917.20
2020,11,18,21,05,917.70
2020,11,18,21,06,918.42
2020,11,18,21,07,918.35
2020,11,18,21,08,918.32
2020,11,18,21,09,918.32
2020,11,18,21,10,918.11
2020,11,18,21,11,917.79
2020,11,18,21,12,918.02
2020,11,18,21,13,918.16
2020,11,18,21,14,918.15
2020,11,18,21,15,918.12
2020,11,18,21,16,918.30
2020,11,18,21,17,917.87
2020,11,18,21,18,917.60
2020,11,18,21,19,917.41
2020,11,18,21,20,917.41
2020,11,18,21,21,918.24
2020,11,18,21,22,919.59
2020,11,18,21,23,919.99
2020,11,18,21,24,920.32
2020,11,18,21,25,919.42
2020,11,18,21,26,918.07
2020,11,18,21,27,917.98
2020,11,18,21,28,918.22
2020,11,18,21,29,918.56
2020,11,18,21,30,918.56
2020,11,18,21,31,918.60
2020,11,18,21,32,918.66
2020,11,18,21,33,918.66
2020,11,18,21,34,918.66
2020,11,18,21,35,918.66
2020,11,18,21,36,918.12
2020,11,18,21,37,917.70
2020,11,18,21,38,917.91
2020,11,18,21,39,917.84
2020,11,18,21,40,917.98
2020,11,18,21,41,917.98
2020,11,18,21,42,918.85
2020,11,18,21,43,919.94
2020,11,18,21,44,919.90
2020,11,18,21,45,919.84
2020,11,18,21,46,919.71
2020,11,18,21,47,919.13
2020,11,18,21,48,918.49
2020,11,18,21,49,919.16
2020,11,18,21,50,919.74
2020,11,18,21,51,919.47
2020,11,18,21,52,919.86
2020,11,18,21,53,920.27
2020,11,18,21,54,920.41
2020,11,18,21,55,920.56
2020,11,18,21,56,920.56
2020,11,18,21,57,919.99
2020,11,18,21,58,919.45
2020,11,18,21,59,919.71
2020,11,18,22,00,919.59
2020,11,18,22,01,919.22
2020,11,18,22,02,919.07
2020,11,18,22,03,919.39
2020,11,18,22,04,919.87
2020,11,18,22,05,920.05
2020,11,18,22,06,919.18
2020,11,18,22,07,918.20
2020,11,18,22,08,917.93
2020,11,18,22,09,917.72
2020,11,18,22,10,917.64
2020,11,18,22,11,918.10
2020,11,18,22,12,918.76
2020,11,18,22,13,918.93
2020,11,18,22,14,919.43
2020,11,18,22,15,919.88
2020,11,18,22,16,919.97
2020,11,18,22,17,919.77
2020,11,18,22,18,919.51
2020,11,18,22,19,919.47
2020,11,18,22,20,919.51
2020,11,18,22,21,919.85
2020,11,18,22,22,920.26
2020,11,18,22,23,920.40
2020,11,18,22,24,920.16
2020,11,18,22,25,919.98
2020,11,18,22,26,919.85
2020,11,18,22,27,919.83
2020,11,18,22,28,919.88
2020,11,18,22,29,920.05
2020,11,18,22,30,919.90
2020,11,18,22,31,919.79
2020,11,18,22,32,919.88
2020,11,18,22,33,919.96
2020,11,18,22,34,920.21
2020,11,18,22,35,920.38
2020,11,18,22,36,920.47
2020,11,18,22,37,920.71
2020,11,18,22,38,920.86
2020,11,18,22,39,921.22
2020,11,18,22,40,921.50
2020,11,18,22,41,921.19
2020,11,18,22,42,920.72
2020,11,18,22,43,920.80
2020,11,18,22,44,921.17
2020,11,18,22,45,921.65
2020,11,18,22,46,921.68
2020,11,18,22,47,921.54
2020,11,18,22,48,921.60
2020,11,18,22,49,921.64
2020,11,18,22,50,921.11
2020,11,18,22,51,920.55
2020,11,18,22,52,920.40
2020,11,18,22,53,920.07
2020,11,18,22,54,919.88
2020,11,18,22,55,920.55
2020,11,18,22,56,920.93
2020,11,18,22,57,920.95
2020,11,18,22,58,921.25
2020,11,18,22,59,921.40
2020,11,18,23,00,921.17
2020,11,18,23,01,921.12
2020,11,18,23,02,921.44
2020,11,18,23,03,921.61
2020,11,18,23,04,921.61
2020,11,18,23,05,921.81
2020,11,18,23,06,922.02
2020,11,18,23,07,922.14
2020,11,18,23,08,922.18
2020,11,18,23,09,922.18
2020,11,18,23,10,921.76
2020,11,18,23,11,921.54
2020,11,18,23,12,922.48
2020,11,18,23,13,922.78
2020,11,18,23,14,922.78
2020,11,18,23,15,922.72
2020,11,18,23,16,922.74
2020,11,18,23,17,923.18
2020,11,18,23,18,923.23
2020,11,18,23,19,923.16
2020,11,18,23,20,922.74
2020,11,18,23,21,922.30
2020,11,18,23,22,921.97
2020,11,18,23,23,921.78
2020,11,18,23,24,921.99
2020,11,18,23,25,922.11
2020,11,18,23,26,922.68
2020,11,18,23,27,923.35
2020,11,18,23,28,923.32
2020,11,18,23,29,923.35
2020,11,18,23,30,923.84
2020,11,18,23,31,923.88
2020,11,18,23,32,923.81
2020,11,18,23,33,923.81
2020,11,18,23,34,923.81
2020,11,18,23,35,922.91
2020,11,18,23,36,922.65
2020,11,18,23,37,923.14
2020,11,18,23,38,923.40
2020,11,18,23,39,923.43
2020,11,18,23,40,923.43
2020,11,18,23,41,923.43
2020,11,18,23,42,924.27
2020,11,18,23,43,924.51
2020,11,18,23,44,924.43
2020,11,18,23,45,924.50
2020,11,18,23,46,924.47
2020,11,18,23,47,924.91
2020,11,18,23,48,924.83
2020,11,18,23,49,924.76
2020,11,18,23,50,923.84
2020,11,18,23,51,923.42
2020,11,18,23,52,923.51
2020,11,18,23,53,923.77
2020,11,18,23,54,923.68
2020,11,18,23,55,923.53
2020,11,18,23,56,923.27
2020,11,18,23,57,923.20
2020,11,18,23,58,923.20
2020,11,18,23,59,923.20
